GW7154 Weather Reports


time (UTC)temp
C
wind
direction
speed
KPH
gust
KPH
rain 1hr
cm
rain 24hr
cm
rain mn
cm
humidity
%
barometer
mb
20260504201458 24 188 3.2 3.2 0.00 0.00 0.00 33 1008.8
20260504200956 24 193 4.8 4.8 0.00 0.00 0.00 32 1008.8
20260504200452 24 268 0.0 0.0 0.00 0.00 0.00 32 1008.8
20260504195949 23 337 3.2 3.2 0.00 0.00 0.00 32 1008.8
20260504195445 23 210 9.7 9.7 0.00 0.00 0.00 32 1008.8
20260504194941 23 177 4.8 4.8 0.00 0.00 0.00 32 1008.8
20260504194438 23 294 1.6 1.6 0.00 0.00 0.00 32 1009.1
20260504193933 24 276 3.2 3.2 0.00 0.00 0.00 34 1009.1
20260504193431 23 252 0.0 0.0 0.00 0.00 0.00 30 1009.1
20260504192930 24 12 0.0 0.0 0.00 0.00 0.00 30 1009.1
20260504192426 23 288 0.0 0.0 0.00 0.00 0.00 30 1009.1
20260504191925 24 136 0.0 0.0 0.00 0.00 0.00 30 1009.5
20260504191423 23 222 3.2 3.2 0.00 0.00 0.00 33 1009.5
20260504190918 23 177 3.2 3.2 0.00 0.00 0.00 33 1009.5
20260504190414 23 78 6.4 6.4 0.00 0.00 0.00 32 1009.5
20260504185911 23 75 12.9 12.9 0.00 0.00 0.00 32 1009.5
20260504185408 23 90 3.2 3.2 0.00 0.00 0.00 35 1009.5
20260504184904 23 116 1.6 1.6 0.00 0.00 0.00 31 1009.8
20260504184400 23 178 1.6 1.6 0.00 0.00 0.00 32 1009.5
20260504183856 23 95 4.8 6.4 0.00 0.00 0.00 32 1009.5
20260504183354 22 149 3.2 3.2 0.00 0.00 0.00 30 1009.5
20260504182851 23 199 4.8 4.8 0.00 0.00 0.00 30 1009.8
20260504182348 23 216 1.6 1.6 0.00 0.00 0.00 34 1009.5
20260504181844 23 250 3.2 3.2 0.00 0.00 0.00 37 1010.2
20260504181342 23 32 0.0 0.0 0.00 0.00 0.00 32 1009.8
20260504180841 22 317 0.0 0.0 0.00 0.00 0.00 33 1010.2
20260504180339 22 270 0.0 0.0 0.00 0.00 0.00 34 1009.8
20260504175837 22 95 3.2 3.2 0.00 0.00 0.00 28 1010.2
20260504175333 22 158 4.8 4.8 0.00 0.00 0.00 35 1010.2
20260504174832 22 226 0.0 0.0 0.00 0.00 0.00 32 1010.2
20260504174329 22 153 1.6 1.6 0.00 0.00 0.00 35 1010.2
20260504173826 22 257 3.2 3.2 0.00 0.00 0.00 30 1010.2
20260504173322 22 179 0.0 0.0 0.00 0.00 0.00 32 1010.5
20260504172819 22 210 6.4 6.4 0.00 0.00 0.00 31 1010.5
20260504172316 22 120 1.6 1.6 0.00 0.00 0.00 29 1010.5
20260504171812 22 49 3.2 3.2 0.00 0.00 0.00 30 1010.5
20260504171309 22 72 0.0 0.0 0.00 0.00 0.00 36 1010.5
20260504170806 22 280 0.0 0.0 0.00 0.00 0.00 36 1010.5
20260504170303 22 307 3.2 3.2 0.00 0.00 0.00 32 1010.8
20260504160221 20 264 1.6 1.6 0.00 0.00 0.00 39 1011.2
20260504151150 20 61 3.2 3.2 0.00 0.00 0.00 39 1011.8
20260504150647 20 78 3.2 3.2 0.00 0.00 0.00 39 1011.8
20260504150144 19 252 3.2 3.2 0.00 0.00 0.00 39 1011.8
20260504141113 18 157 1.6 1.6 0.00 0.00 0.00 49 1011.8
20260504140609 18 324 0.0 0.0 0.00 0.00 0.00 46 1012.2
20260504140105 18 162 3.2 3.2 0.00 0.00 0.00 46 1011.8
20260504130533 16 232 3.2 3.2 0.00 0.00 0.00 55 1012.9
20260504110421 10 175 0.0 0.0 0.00 0.00 0.00 90 1012.5
20260504100337 8 312 0.0 0.0 0.00 0.00 0.00 90 1013.2
20260504081731 7 312 0.0 0.0 0.00 0.00 0.00 86 1013.2
20260504081227 7 312 0.0 0.0 0.00 0.00 0.00 86 1013.2
20260504080724 7 312 0.0 0.0 0.00 0.00 0.00 85 1013.2
20260504080220 7 312 0.0 0.0 0.00 0.00 0.00 85 1013.2
20260504070148 7 190 0.0 0.0 0.00 0.00 0.00 80 1012.9
20260504060108 6 16 0.0 0.0 0.00 0.00 0.00 76 1013.2
20260504050537 6 16 0.0 0.0 0.00 0.00 0.00 73 1013.2
20260504045530 6 16 0.0 0.0 0.00 0.00 0.00 73 1013.5
20260504045026 6 16 0.0 0.0 0.00 0.00 0.00 73 1013.2
20260504044523 6 16 0.0 0.0 0.00 0.00 0.00 73 1013.2
20260504044020 6 16 0.0 0.0 0.00 0.00 0.00 72 1013.2
20260504043517 6 12 0.0 0.0 0.00 0.00 0.00 72 1013.2
20260504043015 6 16 0.0 0.0 0.00 0.00 0.00 71 1013.2
20260504042511 6 16 0.0 0.0 0.00 0.00 0.00 71 1013.2
20260504042008 6 16 0.0 0.0 0.00 0.00 0.00 71 1013.2
20260504041504 6 16 0.0 0.0 0.00 0.00 0.00 70 1012.9
20260504041000 6 16 0.0 0.0 0.00 0.00 0.00 72 1012.9
20260504040458 6 16 0.0 0.0 0.00 0.00 0.00 70 1013.2
20260504035954 6 16 0.0 0.0 0.00 0.00 0.00 69 1013.2
20260504035452 7 16 0.0 0.0 0.00 0.00 0.00 69 1012.9
20260504034948 6 16 0.0 0.0 0.00 0.00 0.00 70 1012.9
20260504034446 6 16 0.0 0.0 0.00 0.00 0.00 69 1012.9
20260504033943 7 16 0.0 0.0 0.00 0.00 0.00 68 1012.9
20260504033440 6 16 0.0 0.0 0.00 0.00 0.00 69 1012.9
20260504032937 7 16 0.0 0.0 0.00 0.00 0.00 69 1012.9
20260504032434 7 16 0.0 0.0 0.00 0.00 0.00 68 1012.5
20260504031931 7 16 0.0 0.0 0.00 0.00 0.00 69 1012.5
20260504031428 7 16 0.0 0.0 0.00 0.00 0.00 69 1012.5
20260504030925 7 16 0.0 0.0 0.00 0.00 0.00 67 1012.5
20260504030421 7 12 0.0 0.0 0.00 0.00 0.00 66 1012.5
20260504025917 7 16 0.0 0.0 0.00 0.00 0.00 66 1012.5
20260504025414 7 16 0.0 0.0 0.00 0.00 0.00 66 1012.5
20260504024911 7 16 0.0 0.0 0.00 0.00 0.00 68 1012.5
20260504024408 7 16 0.0 0.0 0.00 0.00 0.00 68 1012.5
20260504023905 7 16 0.0 0.0 0.00 0.00 0.00 63 1012.5
20260504023402 7 16 0.0 0.0 0.00 0.00 0.00 67 1012.5
20260504022857 7 16 0.0 0.0 0.00 0.00 0.00 62 1012.5
20260504022354 7 16 0.0 0.0 0.00 0.00 0.00 66 1012.5
20260504021851 8 16 0.0 0.0 0.00 0.00 0.00 62 1012.9
20260504021348 8 16 0.0 0.0 0.00 0.00 0.00 61 1012.5
20260504020845 8 16 0.0 0.0 0.00 0.00 0.00 60 1012.5
20260504020342 8 16 0.0 0.0 0.00 0.00 0.00 61 1012.5
20260504015838 8 16 0.0 0.0 0.00 0.00 0.00 61 1012.5
20260504015334 8 16 0.0 0.0 0.00 0.00 0.00 60 1012.5
20260504014830 8 16 0.0 0.0 0.00 0.00 0.00 61 1012.5
20260504014326 8 16 0.0 0.0 0.00 0.00 0.00 61 1012.5
20260504013824 8 16 0.0 0.0 0.00 0.00 0.00 60 1012.5
20260504013322 8 16 0.0 0.0 0.00 0.00 0.00 61 1012.5
20260504012818 8 16 0.0 0.0 0.00 0.00 0.00 62 1012.5
20260504012316 8 16 0.0 0.0 0.00 0.00 0.00 62 1012.5
20260504011813 8 12 0.0 0.0 0.00 0.00 0.00 59 1012.2
20260504011310 8 12 0.0 0.0 0.00 0.00 0.00 59 1012.2
20260504010805 8 16 0.0 0.0 0.00 0.00 0.00 58 1012.2
20260504010301 8 16 0.0 0.0 0.00 0.00 0.00 61 1012.2
20260504005758 8 16 0.0 0.0 0.00 0.00 0.00 59 1012.2
20260504005255 9 16 0.0 0.0 0.00 0.00 0.00 57 1012.2
20260504004753 9 16 0.0 0.0 0.00 0.00 0.00 56 1012.2
20260504004250 9 16 0.0 0.0 0.00 0.00 0.00 55 1012.2
20260504003746 9 16 0.0 0.0 0.00 0.00 0.00 54 1011.8
20260504003244 9 16 0.0 0.0 0.00 0.00 0.00 54 1011.5
20260504002740 10 16 0.0 0.0 0.00 0.00 0.00 53 1011.8
20260504002237 10 16 0.0 0.0 0.00 0.00 0.00 52 1011.8
20260504001735 10 16 0.0 0.0 0.00 0.00 0.00 53 1011.8
20260504001232 10 16 0.0 0.0 0.00 0.00 0.00 52 1011.8
20260504000728 10 16 0.0 0.0 0.00 0.00 0.00 51 1011.5
20260504000226 10 16 0.0 0.0 0.00 0.00 0.00 48 1011.5
20260503235724 11 16 0.0 0.0 0.00 0.00 0.00 49 1011.8
20260503235220 11 16 0.0 0.0 0.00 0.00 0.00 51 1011.5
20260503234718 11 16 0.0 0.0 0.00 0.00 0.00 50 1011.2
20260503234216 12 16 0.0 0.0 0.00 0.00 0.00 44 1011.2
20260503233713 12 16 0.0 0.0 0.00 0.00 0.00 41 1011.5
20260503233208 12 16 0.0 0.0 0.00 0.00 0.00 42 1011.5
20260503232705 12 16 0.0 0.0 0.00 0.00 0.00 40 1011.5
20260503232202 13 16 0.0 0.0 0.00 0.00 0.00 38 1011.2
20260503231701 13 16 0.0 0.0 0.00 0.00 0.00 38 1011.5
20260503231156 13 16 0.0 0.0 0.00 0.00 0.00 38 1011.2
20260503230653 13 16 0.0 0.0 0.00 0.00 0.00 37 1011.5
20260503230151 13 16 0.0 0.0 0.00 0.00 0.00 35 1011.2
20260503225648 13 12 0.0 0.0 0.00 0.00 0.00 36 1011.2
20260503225148 14 196 0.0 0.0 0.00 0.00 0.00 38 1011.2
20260503224645 14 65 3.2 3.2 0.00 0.00 0.00 37 1011.2
20260503224143 14 101 3.2 3.2 0.00 0.00 0.00 35 1011.2
20260503223641 15 0 0.0 0.0 0.00 0.00 0.00 37 1011.2
20260503223137 15 18 3.2 3.2 0.00 0.00 0.00 35 1011.2
20260503222634 15 96 4.8 4.8 0.00 0.00 0.00 37 1011.2
20260503222132 15 330 0.0 0.0 0.00 0.00 0.00 32 1011.2
20260503221630 15 27 0.0 0.0 0.00 0.00 0.00 32 1011.2
20260503221127 15 270 3.2 3.2 0.00 0.00 0.00 32 1011.2
20260503220624 16 139 0.0 0.0 0.00 0.00 0.00 33 1011.2
20260503220120 16 310 3.2 3.2 0.00 0.00 0.00 33 1011.2
20260503215618 16 294 0.0 0.0 0.00 0.00 0.00 31 1011.2
20260503215114 16 294 0.0 0.0 0.00 0.00 0.00 31 1011.2
20260503214613 16 193 0.0 0.0 0.00 0.00 0.00 33 1011.5
20260503214109 16 354 3.2 3.2 0.00 0.00 0.00 31 1011.5
20260503213608 16 294 0.0 0.0 0.00 0.00 0.00 34 1011.2
20260503213104 16 24 9.7 11.3 0.00 0.00 0.00 32 1011.2
20260503212602 16 139 3.2 3.2 0.00 0.00 0.00 33 1011.2
20260503212059 15 108 3.2 3.2 0.00 0.00 0.00 34 1011.2
20260503211556 16 241 1.6 1.6 0.00 0.00 0.00 31 1011.2
20260503211051 16 290 3.2 3.2 0.00 0.00 0.00 31 1011.2
20260503210548 16 306 3.2 3.2 0.00 0.00 0.00 32 1011.2
20260503210044 16 179 3.2 3.2 0.00 0.00 0.00 31 1011.2
20260503205541 16 311 3.2 3.2 0.00 0.00 0.00 35 1011.2
20260503205037 16 239 3.2 3.2 0.00 0.00 0.00 36 1011.2
20260503204534 15 17 0.0 0.0 0.00 0.00 0.00 34 1011.2
20260503204031 15 33 3.2 3.2 0.00 0.00 0.00 33 1011.2
20260503203529 15 238 1.6 1.6 0.00 0.00 0.00 31 1011.2
20260503203026 15 248 3.2 3.2 0.00 0.00 0.00 34 1011.5
20260503202523 15 296 0.0 0.0 0.00 0.00 0.00 33 1011.2
20260503202021 15 24 3.2 3.2 0.00 0.00 0.00 33 1011.2